Location: *
(32.8667°N, 13.1833°E)
Time: 07:14:21
(UTC+00:00)

Cosmos 1607 - Pass Details

Date: 18 July 2019
Orbit: 931 x 971 km, 65.0° (Epoch: 21 August)

Event Time Altitude Azimuth Distance (km) Brightness Sun altitude
Rises 21:46:55 0° 333° (NNW) 3,587 8.1 -32.3°
Reaches altitude 10° 21:49:27 10° 335° (NNW) 2,642 7.1 -32.6°
Enters shadow 21:54:31 61° 356° (N) 1,057 4.3 -33.0°
